sat.trackr.live / text

‹ back to catalog

STARLINK-6168

NORAD 57369 · 2023-099AT

PAYLOAD ACTIVE UNKNOWN

§ Identity

Operator
Country
US
Launch date
2023-07-16
Launch site
AFETR
Launch vehicle
Mass (kg)
RCS (m²)

Purposes: comms

External: N2YO · Heavens-Above · Gunter

§ Orbital elements

Epoch: 2026-05-25T01:53:54.350592Z

Period
94.27 min
Inclination
43.0020°
Eccentricity
0.0001369
Mean motion
15.27542623 rev/d
Perigee alt
482.2 km
Apogee alt
484.1 km
Semi-major
6,861.3 km
B*
6.0275e-5
RAAN
170.1307°
Arg perigee
254.0355°
Mean anomaly
106.0346°
Rev number
15,788

§ Raw data

STARLINK-61681 57369U 23099AT  26145.07910128  .00001395  00000+0  60275-4 0  99902 57369  43.0020 170.1307 0001369 254.0355 106.0346 15.27542623157889

JSON: /api/v1/satellites/57369 · /tle

For live sub-satellite position, see the globe view (requires WebGL).

§ Visibility from observer

Set your observer location to see the next 7 days of passes ≥ 10°. The values pass through the URL so the page stays shareable.

No JS? Fill the form by hand. The geolocation button needs JavaScript.